Pampa, TX

8:42 PM CDT on March 28, 2017 (GMT -0500)
Perry Lefors

Weather History for KPPA - April, 2013

Change the Weather History Date:

Wednesday, April 24, 2013

  Actual Average Record
Temperature  
Mean Temperature 38 °F -  
Max Temperature 60 °F 73 °F 95 °F (1989)
Min Temperature 16 °F 43 °F 16 °F (2013)
Degree Days  
Heating Degree Days 27    
Moisture  
Dew Point 18 °F    
Average Humidity 54    
Maximum Humidity 93    
Minimum Humidity 15    
Precipitation  
Precipitation 0.00 in - - ()
Sea Level Pressure  
Sea Level Pressure 30.26 in    
Wind  
Wind Speed 3 mph (SSE)    
Max Wind Speed 15 mph    
Max Gust Speed 16 mph    
Visibility 9 miles    
Events Fog    
Averages and records for this station are not official NWS values.
T = Trace of Precipitation, MM = Missing Value Source: NWS Daily Summary

Daily Weather History Graph

Daily Weather History Graph

Search for Another Location

Airport or City:

Trip Planner

Search our weather history database for the weather conditions in past years. The results will help you decide how hot, cold, wet, or windy it might be!

Date:

Astronomy

Apr. 24, 2013 Rise Set
Actual Time 6:59 AM CDT 8:24 PM CDT
Civil Twilight 6:32 AM CDT 8:51 PM CDT
Nautical Twilight 6:00 AM CDT 9:24 PM CDT
Astronomical Twilight 5:27 AM CDT 9:57 PM CDT
Moon 7:31 PM CDT (4/24) 6:02 AM CDT (4/24)
Length of Visible Light 14h 18m
Length of Day
13h 25m
Waxing Gibbous, 98% of the Moon is Illuminated
Apr 24
Waxing Gibbous
Apr 25
Full
May 2
Last Quarter
May 9
New
May 17
First Quarter

Hourly Weather History & Observations

Time (CDT) Temp. Windchill Dew Point Humidity Pressure Visibility Wind Dir Wind Speed Gust Speed Precip Events Conditions
12:15 AM 24.6 °F - 22.6 °F 92% 30.30 in 7.0 mi Calm Calm - N/A   Clear
12:35 AM 23.9 °F - 21.9 °F 92% 30.30 in 7.0 mi Calm Calm - N/A   Clear
12:55 AM 22.3 °F - 20.3 °F 92% 30.30 in 7.0 mi Calm Calm - N/A   Clear
1:15 AM 23.0 °F - 21.2 °F 93% 30.29 in 5.0 mi Calm Calm - N/A   Clear
1:35 AM 22.5 °F - 20.8 °F 93% 30.28 in 4.0 mi Calm Calm - N/A   Clear
1:55 AM 21.7 °F - 20.1 °F 93% 30.27 in 3.0 mi Calm Calm - N/A   Clear
2:15 AM 21.9 °F - 20.1 °F 93% 30.27 in 0.5 mi Calm Calm - N/A Fog Light Freezing Fog
2:35 AM 21.6 °F - 19.8 °F 93% 30.27 in 0.5 mi Calm Calm - N/A Fog Light Freezing Fog
2:55 AM 20.7 °F - 18.5 °F 91% 30.27 in 5.0 mi Calm Calm - N/A   Clear
3:15 AM 21.6 °F - 19.8 °F 93% 30.27 in 4.0 mi Calm Calm - N/A   Clear
3:35 AM 20.5 °F - 18.5 °F 92% 30.28 in 5.0 mi Calm Calm - N/A   Clear
3:55 AM 19.8 °F - 17.8 °F 92% 30.28 in 7.0 mi Calm Calm - N/A   Clear
4:15 AM 20.3 °F - 18.1 °F 91% 30.28 in 7.0 mi Calm Calm - N/A   Clear
4:35 AM 19.4 °F - 17.2 °F 91% 30.28 in 7.0 mi Calm Calm - N/A   Clear
4:55 AM 19.9 °F - 17.8 °F 91% 30.27 in 7.0 mi Calm Calm - N/A   Clear
5:15 AM 19.8 °F - 17.6 °F 91% 30.27 in 7.0 mi Calm Calm - N/A   Clear
5:35 AM 19.8 °F - 18.0 °F 93% 30.26 in 7.0 mi Calm Calm - N/A   Clear
5:55 AM 21.6 °F - 19.8 °F 93% 30.27 in 7.0 mi Calm Calm - N/A   Clear
6:15 AM 17.1 °F - 14.5 °F 90% 30.27 in 7.0 mi Calm Calm - N/A   Clear
6:35 AM 18.9 °F - 16.7 °F 91% 30.27 in 10.0 mi Calm Calm - N/A   Clear
6:55 AM 16.5 °F - 13.8 °F 89% 30.27 in 7.0 mi Calm Calm - N/A   Clear
7:15 AM 16.3 °F - 14.2 °F 91% 30.27 in 10.0 mi Calm Calm - N/A   Clear
7:35 AM 19.9 °F - 17.8 °F 91% 30.29 in 10.0 mi Calm Calm - N/A   Clear
7:55 AM 22.6 °F - 20.3 °F 91% 30.29 in 10.0 mi Calm Calm - N/A   Clear
8:15 AM 25.0 °F - 22.1 °F 89% 30.29 in 10.0 mi Calm Calm - N/A   Clear
8:35 AM 27.3 °F - 23.9 °F 87% 30.29 in 10.0 mi Calm Calm - N/A   Clear
8:55 AM 29.3 °F - 25.5 °F 86% 30.29 in 10.0 mi Calm Calm - N/A   Clear
9:15 AM 31.5 °F - 26.6 °F 82% 30.30 in 10.0 mi Calm Calm - N/A   Clear
9:35 AM 33.3 °F - 28.2 °F 82% 30.30 in 10.0 mi Calm Calm - N/A   Clear
9:55 AM 34.9 °F - 27.5 °F 74% 30.30 in 10.0 mi Calm Calm - N/A   Clear
10:15 AM 37.2 °F 29.6 °F 26.2 °F 65% 30.30 in 10.0 mi West 11.5 mph - N/A   Clear
10:35 AM 39.6 °F 32.5 °F 25.0 °F 56% 30.30 in 10.0 mi WNW 11.5 mph - N/A   Clear
10:55 AM 41.5 °F 35.0 °F 23.2 °F 48% 30.30 in 10.0 mi WNW 11.5 mph - N/A   Clear
11:15 AM 42.6 °F 37.2 °F 20.8 °F 42% 30.30 in 10.0 mi WNW 9.2 mph - N/A   Clear
11:35 AM 44.1 °F 39.5 °F 18.5 °F 36% 30.30 in 10.0 mi West 8.1 mph - N/A   Clear
11:55 AM 45.7 °F 41.5 °F 17.1 °F 32% 30.29 in 10.0 mi West 8.1 mph - N/A   Clear
12:15 PM 46.8 °F - 16.5 °F 30% 30.28 in 10.0 mi North 5.8 mph - N/A   Clear
12:35 PM 48.7 °F - 15.8 °F 27% 30.27 in 10.0 mi North 4.6 mph - N/A   Clear
12:55 PM 49.1 °F - 16.2 °F 27% 30.27 in 10.0 mi Calm Calm - N/A   Clear
1:15 PM 51.3 °F - 16.3 °F 25% 30.26 in 10.0 mi NNE 5.8 mph - N/A   Clear
1:35 PM 52.0 °F - 13.8 °F 22% 30.25 in 10.0 mi Calm Calm - N/A   Clear
1:55 PM 53.2 °F - 12.6 °F 20% 30.24 in 10.0 mi ENE 3.5 mph - N/A   Clear
2:15 PM 54.3 °F - 10.4 °F 17% 30.24 in 10.0 mi SSW 4.6 mph - N/A   Clear
2:35 PM 56.5 °F - 13.3 °F 18% 30.23 in 10.0 mi SE 4.6 mph - N/A   Clear
2:55 PM 56.7 °F - 13.8 °F 18% 30.23 in 10.0 mi South 8.1 mph - N/A   Clear
3:15 PM 57.7 °F - 11.8 °F 16% 30.22 in 10.0 mi South 8.1 mph - N/A   Clear
3:35 PM 57.4 °F - 11.1 °F 16% 30.22 in 10.0 mi Calm Calm - N/A   Clear
3:55 PM 59.5 °F - 13.6 °F 17% 30.21 in 10.0 mi East 9.2 mph 16.1 mph N/A   Clear
4:15 PM 59.0 °F - 12.4 °F 16% 30.21 in 10.0 mi SSW 8.1 mph - N/A   Clear
4:35 PM 59.5 °F - 12.7 °F 16% 30.19 in 10.0 mi ESE 9.2 mph - N/A   Clear
4:55 PM 60.1 °F - 12.7 °F 16% 30.19 in 10.0 mi South 4.6 mph - N/A   Clear
5:15 PM 60.4 °F - 12.7 °F 15% 30.19 in 10.0 mi SSE 5.8 mph - N/A   Clear
5:35 PM 59.5 °F - 12.6 °F 16% 30.19 in 10.0 mi Calm Calm - N/A   Clear
5:55 PM 60.3 °F - 13.3 °F 16% 30.19 in 10.0 mi SE 4.6 mph - N/A   Clear
6:15 PM 60.3 °F - 13.3 °F 16% 30.19 in 10.0 mi SSE 5.8 mph - N/A   Clear
6:35 PM 59.4 °F - 13.6 °F 17% 30.19 in 10.0 mi ESE 6.9 mph - N/A   Clear
6:55 PM 59.7 °F - 13.6 °F 16% 30.19 in 10.0 mi SSE 9.2 mph - N/A   Clear
7:15 PM 58.3 °F - 14.5 °F 18% 30.19 in 10.0 mi SE 11.5 mph - N/A   Clear
7:35 PM 57.9 °F - 13.8 °F 18% 30.19 in 10.0 mi SE 11.5 mph - N/A   Clear
7:55 PM 55.6 °F - 14.4 °F 20% 30.19 in 10.0 mi SE 10.4 mph - N/A   Clear
8:15 PM 54.5 °F - 15.1 °F 21% 30.19 in 10.0 mi SE 10.4 mph - N/A   Clear
8:35 PM 52.7 °F - 15.8 °F 23% 30.21 in 10.0 mi SE 10.4 mph - N/A   Clear
8:55 PM 51.4 °F - 16.7 °F 25% 30.22 in 10.0 mi SE 9.2 mph - N/A   Clear
10:15 PM 47.3 °F - 18.5 °F 32% 30.27 in 10.0 mi SSE 10.4 mph - N/A   Clear
10:35 PM 45.9 °F 40.8 °F 18.9 °F 34% 30.27 in 10.0 mi SE 10.4 mph - N/A   Clear
10:55 PM 45.5 °F 39.6 °F 19.0 °F 35% 30.28 in 10.0 mi SSE 12.7 mph - N/A   Clear
11:35 PM 44.4 °F 38.2 °F 19.2 °F 37% 30.28 in 10.0 mi SE 12.7 mph - N/A   Clear
11:55 PM 42.6 °F 35.2 °F 20.3 °F 41% 30.28 in 10.0 mi SSE 15.0 mph - N/A   Clear